Probability
0 0 0 0 0 0 0 0 0 0 0 0 0 0 0 0 0 0 0 6 16 29 52 71 77 77 81 71 61 65 65 61 61 55 55 55 52 42 39 39 35 39 32 26 19 16 16 13 6
0 0 0 0 0 0 0 0 0 0 0 0 0 0 0 0 0 3 6 26 26 45 52 58 77 74 77 71 58 61 55 58 52 48 52 55 48 42 42 42 35 35 23 26 16 16 13 13 10
0 0 0 0 0 0 0 0 0 0 0 0 0 0 0 0 0 3 19 19 26 39 45 48 71 68 68 68 58 55 55 52 52 55 55 55 55 52 39 29 32 29 23 26 16 16 13 13 13
0 0 0 0 0 0 0 0 0 0 0 0 0 0 0 0 0 6 19 13 23 32 39 52 65 68 61 65 55 55 55 52 55 55 52 58 52 48 39 32 35 29 26 26 16 16 16 13 13
0 0 0 0 0 0 0 0 0 0 0 0 0 0 0 3 10 16 19 19 23 29 35 48 58 61 58 52 52 52 55 55 55 55 52 48 45 42 35 35 32 29 26 23 23 16 16 13 13
0 0 0 0 0 0 0 0 0 0 0 0 0 0 0 3 16 13 16 23 23 29 32 42 48 52 52 48 55 52 52 52 55 55 52 48 45 42 29 32 26 29 29 26 19 13 16 16 13
0 0 0 0 0 0 0 0 0 0 0 0 0 0 0 3 13 16 16 16 16 26 32 35 35 35 32 32 35 42 39 42 42 45 48 42 42 39 32 29 29 26 29 29 23 16 13 16 10
0 0 0 0 0 0 0 0 0 0 0 0 0 0 0 6 6 16 16 16 13 19 26 26 32 29 26 26 29 26 26 35 35 32 19 19 26 23 32 26 32 29 32 29 29 23 16 16 13
0 0 0 0 0 0 0 0 0 0 0 0 0 0 0 3 10 19 16 13 6 10 16 16 16 19 16 16 13 16 19 19 13 6 6 6 10 10 10 10 16 29 29 32 29 26 23 10 10
0 0 0 0 0 0 0 0 0 0 0 0 0 0 3 3 13 16 16 10 6 0 6 6 6 6 10 6 6 3 0 0 0 0 0 3 3 3 3 6 10 16 16 23 23 23 19 6 3
0 0 0 0 0 0 0 0 0 0 0 0 0 3 6 10 13 13 10 3 0 0 0 3 3 3 6 0 0 0 0 0 0 0 0 0 0 0 3 3 3 6 6 10 19 16 6 0 0
0 0 0 0 0 0 0 0 0 0 0 0 0 0 3 6 10 10 10 0 0 0 0 0 0 3 0 0 0 0 0 0 0 0 0 0 0 0 0 0 3 3 3 6 6 6 0 0 0
0 0 0 0 0 0 0 0 0 0 0 0 0 0 6 6 6 10 6 0 0 0 0 0 0 0 0 0 0 0 0 0 0 0 0 0 0 0 0 0 0 0 3 3 6 6 3 0 0
0 0 0 0 0 0 0 0 0 0 0 0 0 0 3 0 3 3 6 0 0 0 0 0 0 0 0 0 0 0 0 0 0 0 0 0 0 0 0 0 0 0 0 0 0 6 3 0 0
0 0 0 0 0 0 0 0 0 0 0 0 0 0 0 0 0 0 0 0 3 0 0 0 0 0 0 0 0 0 0 0 0 0 0 0 0 0 0 0 0 0 0 0 0 0 3 0 0
0 0 0 0 0 0 0 0 0 0 0 0 0 0 0 0 0 0 0 0 0 3 0 0 0 0 0 0 0 0 0 0 0 0 0 0 0 0 0 0 0 0 0 0 0 0 0 0 0
0 0 0 0 0 0 0 0 0 0 0 0 0 0 0 0 0 0 0 0 0 3 3 0 0 0 0 0 0 0 0 0 0 0 0 0 0 0 0 0 0 0 0 0 0 0 0 0 0
0 0 0 0 0 0 0 0 0 0 0 0 0 0 0 0 0 0 0 0 0 0 3 0 0 0 0 0 0 0 0 0 0 0 0 0 0 0 0 0 0 0 0 0 0 0 0 0 0
0 0 0 0 0 0 0 0 0 0 0 0 0 0 0 0 0 0 0 0 0 0 0 0 0 0 0 0 0 0 0 0 0 0 0 0 0 0 0 0 0 0 0 0 0 0 0 0 0
0 0 0 0 0 0 0 0 0 0 0 0 0 0 0 0 0 0 0 0 0 0 0 0 0 0 0 0 0 0 0 0 0 0 0 0 0 0 0 0 0 0 0 0 0 0 0 0 0
0 0 0 0 0 0 0 0 0 0 0 0 0 0 0 0 0 0 0 0 0 0 0 0 0 0 0 0 0 0 0 0 0 0 0 0 0 0 0 0 0 0 0 0 0 0 0 0 0
0 0 0 0 0 0 0 0 0 0 0 0 0 0 0 0 0 0 0 0 0 0 0 0 0 0 0 0 0 0 0 0 0 0 0 0 0 0 0 0 0 0 0 0 0 0 0 0 0
0 0 0 0 0 0 0 0 0 0 0 0 0 0 0 0 0 0 0 0 0 0 0 0 0 0 0 0 0 0 0 0 0 0 0 0 0 0 0 0 0 0 0 0 0 0 0 0 0
0 0 0 0 0 0 0 0 0 0 0 0 0 0 0 0 0 0 0 0 0 0 0 0 0 0 0 0 0 0 0 0 0 0 0 0 0 0 0 0 0 0 0 0 0 0 0 0 0
0 0 0 0 0 0 0 0 0 0 0 0 0 0 0 0 0 0 0 0 0 0 0 0 0 0 0 0 0 0 0 0 0 0 0 0 0 0 0 0 0 0 0 0 0 0 0 0 0
0 0 0 0 0 0 0 0 0 0 0 0 0 0 0 0 0 0 0 0 0 0 0 0 0 0 0 0 0 0 0 0 0 0 0 0 0 0 0 0 0 0 0 0 0 0 0 0 0
0 0 0 0 0 0 0 0 0 0 0 0 0 0 0 0 0 0 0 0 0 0 0 0 0 0 0 0 0 0 0 0 0 0 0 0 0 0 0 0 0 0 0 0 0 0 0 0 0
0 0 0 0 0 0 0 0 0 0 0 0 0 0 0 0 0 0 0 0 0 0 0 0 0 0 0 0 0 0 0 0 0 0 0 0 0 0 0 0 0 0 0 0 0 0 0 0 0
0 0 0 0 0 0 0 0 0 0 0 0 0 0 0 0 0 0 0 0 0 0 0 0 0 0 0 0 0 0 0 0 0 0 0 0 0 0 0 0 0 0 0 0 0 0 0 0 0
0 0 0 0 0 0 0 0 0 0 0 0 0 0 0 0 0 0 0 0 0 0 0 0 0 0 0 0 0 0 0 0 0 0 0 0 0 0 0 0 0 0 0 0 0 0 0 0 0
Height
5815 5817 5819 5821 5823 5824 5827 5831 5832 5833 5834 5835 5837 5838 5840 5842 5844 5848 5848 5848 5849 5851 5852 5854 5855 5857 5858 5859 5861 5862 5864 5865 5867 5868 5869 5870 5872 5873 5874 5875 5876 5877 5878 5879 5880 5880 5881 5881 5882
5810 5812 5814 5815 5816 5819 5824 5826 5827 5829 5830 5831 5833 5834 5836 5838 5841 5843 5844 5845 5847 5848 5850 5851 5853 5855 5856 5858 5859 5861 5862 5864 5865 5866 5868 5869 5870 5872 5873 5874 5875 5876 5878 5879 5879 5880 5881 5881 5882
5804 5806 5808 5809 5811 5815 5819 5821 5822 5823 5825 5827 5828 5830 5833 5835 5837 5839 5841 5842 5844 5845 5847 5849 5850 5852 5854 5855 5857 5859 5860 5862 5863 5865 5866 5867 5869 5870 5871 5873 5874 5875 5876 5878 5878 5879 5880 5881 5881
5798 5800 5801 5804 5806 5811 5814 5816 5817 5818 5820 5822 5824 5826 5828 5831 5833 5835 5837 5839 5841 5842 5844 5846 5848 5849 5851 5853 5855 5856 5858 5860 5861 5863 5864 5865 5867 5868 5870 5871 5872 5874 5875 5876 5877 5878 5879 5880 5880
5791 5792 5794 5796 5800 5805 5808 5809 5810 5812 5815 5817 5819 5821 5824 5826 5828 5830 5832 5835 5837 5839 5841 5842 5844 5846 5848 5850 5852 5854 5856 5857 5859 5860 5862 5863 5865 5866 5868 5869 5871 5872 5873 5874 5876 5877 5878 5878 5879
5783 5785 5788 5790 5795 5799 5801 5802 5804 5806 5809 5811 5813 5816 5818 5821 5823 5826 5828 5830 5832 5834 5836 5838 5840 5843 5845 5847 5849 5851 5853 5855 5856 5858 5860 5861 5863 5864 5866 5867 5869 5870 5871 5872 5874 5875 5876 5877 5878
5776 5777 5779 5783 5787 5791 5794 5795 5797 5799 5802 5805 5807 5810 5813 5816 5818 5821 5823 5825 5828 5830 5832 5834 5836 5839 5841 5843 5846 5848 5850 5852 5853 5855 5857 5859 5860 5862 5864 5865 5866 5868 5869 5870 5872 5873 5874 5875 5876
5766 5769 5771 5775 5779 5784 5787 5787 5789 5792 5795 5798 5801 5804 5807 5810 5813 5815 5817 5820 5822 5825 5828 5830 5832 5834 5837 5839 5842 5844 5846 5848 5850 5852 5854 5856 5858 5859 5861 5862 5864 5865 5867 5868 5869 5870 5872 5873 5874
5756 5759 5762 5767 5771 5776 5778 5779 5781 5784 5787 5790 5794 5798 5801 5803 5806 5810 5812 5815 5817 5820 5822 5825 5827 5830 5832 5835 5837 5840 5842 5845 5847 5849 5851 5853 5855 5856 5858 5860 5861 5862 5864 5865 5867 5868 5869 5870 5871
5745 5749 5755 5759 5762 5765 5768 5770 5773 5775 5778 5782 5786 5790 5793 5797 5800 5803 5806 5809 5811 5814 5817 5819 5822 5824 5827 5830 5833 5835 5838 5841 5843 5845 5847 5849 5851 5853 5855 5857 5858 5859 5861 5862 5864 5865 5866 5867 5869
5735 5740 5745 5748 5751 5754 5757 5760 5763 5766 5770 5774 5778 5782 5786 5789 5793 5796 5800 5803 5805 5808 5811 5813 5816 5818 5821 5824 5827 5830 5833 5836 5838 5841 5843 5845 5847 5849 5851 5853 5855 5856 5858 5859 5861 5862 5863 5864 5865
5724 5729 5733 5736 5739 5742 5746 5750 5753 5757 5762 5765 5769 5773 5777 5781 5785 5789 5792 5796 5798 5801 5804 5807 5810 5813 5815 5818 5822 5825 5828 5831 5834 5836 5839 5841 5844 5846 5847 5849 5851 5853 5854 5856 5857 5858 5860 5861 5862
5711 5717 5720 5723 5727 5730 5734 5739 5742 5747 5752 5755 5759 5764 5768 5773 5777 5781 5784 5788 5791 5794 5798 5801 5803 5806 5809 5813 5816 5819 5822 5826 5829 5831 5834 5836 5839 5841 5843 5845 5847 5848 5850 5852 5853 5855 5856 5857 5858
5698 5702 5706 5709 5713 5718 5722 5727 5731 5738 5741 5745 5749 5754 5759 5764 5768 5772 5776 5780 5784 5788 5791 5794 5797 5800 5803 5807 5810 5813 5817 5820 5823 5826 5829 5831 5834 5836 5838 5840 5842 5844 5846 5847 5849 5850 5851 5853 5854
5683 5686 5691 5696 5700 5705 5709 5714 5721 5727 5730 5734 5739 5744 5749 5754 5759 5764 5768 5772 5776 5780 5783 5787 5790 5793 5797 5800 5804 5807 5811 5814 5817 5820 5823 5826 5828 5830 5833 5835 5837 5839 5841 5843 5844 5846 5847 5848 5849
5666 5669 5675 5683 5687 5691 5696 5702 5711 5714 5717 5723 5728 5733 5739 5744 5749 5754 5759 5763 5767 5772 5775 5779 5783 5786 5790 5794 5797 5801 5804 5807 5811 5814 5817 5819 5822 5824 5827 5829 5831 5833 5835 5837 5839 5841 5842 5843 5845
5649 5654 5662 5669 5673 5677 5681 5689 5697 5700 5705 5711 5716 5722 5728 5733 5739 5744 5749 5754 5758 5763 5767 5771 5775 5779 5782 5786 5790 5794 5797 5801 5804 5807 5810 5813 5815 5818 5820 5823 5825 5827 5829 5831 5833 5835 5837 5838 5839
5635 5640 5647 5653 5658 5662 5667 5675 5682 5686 5692 5698 5704 5710 5716 5722 5728 5733 5738 5743 5748 5753 5757 5762 5766 5770 5774 5778 5782 5786 5790 5794 5797 5800 5803 5806 5809 5811 5814 5816 5818 5820 5823 5825 5827 5829 5830 5832 5833
5620 5625 5631 5638 5643 5647 5653 5660 5667 5672 5678 5684 5690 5697 5704 5710 5716 5721 5727 5732 5737 5743 5748 5752 5757 5761 5766 5770 5774 5778 5782 5786 5789 5792 5795 5799 5801 5804 5807 5809 5811 5813 5816 5818 5820 5822 5824 5825 5827
5604 5609 5616 5623 5628 5632 5638 5645 5651 5656 5663 5670 5677 5684 5691 5697 5703 5709 5715 5721 5727 5732 5738 5743 5747 5752 5756 5761 5765 5769 5773 5776 5780 5784 5787 5790 5793 5796 5799 5801 5804 5806 5808 5810 5813 5815 5816 5818 5820
5591 5597 5603 5609 5614 5618 5623 5629 5636 5642 5649 5656 5663 5670 5678 5685 5691 5697 5704 5710 5716 5722 5727 5732 5737 5742 5746 5751 5755 5759 5764 5768 5772 5775 5779 5782 5785 5788 5791 5793 5796 5798 5801 5803 5805 5807 5809 5810 5812
5580 5586 5591 5595 5599 5604 5610 5614 5623 5630 5636 5643 5651 5657 5665 5672 5679 5685 5692 5698 5704 5711 5716 5721 5726 5731 5736 5741 5745 5750 5755 5759 5763 5766 5769 5773 5776 5779 5782 5785 5787 5790 5792 5795 5797 5798 5800 5802 5804
5570 5575 5579 5583 5587 5591 5597 5602 5610 5617 5624 5632 5640 5646 5653 5660 5667 5674 5681 5687 5693 5699 5704 5710 5715 5720 5725 5731 5735 5740 5745 5749 5753 5756 5760 5764 5767 5770 5773 5776 5779 5781 5784 5786 5788 5790 5792 5794 5796
5558 5563 5567 5571 5574 5578 5586 5591 5597 5605 5614 5622 5629 5635 5642 5648 5655 5662 5669 5675 5681 5687 5693 5698 5704 5709 5715 5720 5725 5730 5734 5739 5743 5747 5751 5754 5757 5761 5764 5767 5769 5772 5775 5777 5779 5781 5783 5785 5787
5548 5553 5556 5559 5561 5567 5576 5579 5586 5595 5603 5610 5617 5623 5630 5637 5644 5650 5657 5663 5670 5676 5682 5688 5693 5698 5704 5709 5714 5719 5724 5728 5733 5737 5740 5744 5748 5751 5754 5757 5760 5763 5765 5768 5770 5772 5775 5776 5778
5539 5543 5547 5551 5554 5560 5565 5567 5577 5584 5591 5598 5605 5612 5618 5625 5632 5639 5646 5652 5658 5664 5670 5676 5682 5687 5693 5698 5704 5709 5713 5718 5722 5726 5730 5734 5738 5741 5744 5747 5750 5753 5756 5758 5761 5763 5765 5767 5769
5531 5534 5539 5543 5546 5550 5554 5559 5567 5574 5580 5588 5595 5601 5607 5614 5621 5628 5634 5641 5647 5653 5659 5665 5671 5676 5682 5687 5693 5698 5702 5707 5711 5716 5720 5723 5727 5731 5734 5737 5740 5743 5746 5748 5751 5754 5756 5757 5759
5525 5528 5531 5534 5537 5541 5545 5551 5558 5565 5571 5578 5585 5591 5597 5603 5610 5617 5623 5630 5636 5642 5648 5654 5660 5665 5671 5676 5681 5687 5692 5696 5701 5705 5709 5713 5716 5720 5723 5726 5730 5733 5736 5738 5741 5743 5746 5748 5749
5518 5520 5522 5526 5530 5534 5537 5545 5550 5557 5563 5569 5575 5581 5587 5593 5599 5606 5612 5619 5625 5631 5637 5643 5649 5654 5660 5665 5670 5675 5680 5685 5690 5694 5698 5702 5706 5709 5712 5716 5719 5722 5725 5728 5730 5733 5735 5737 5739
5509 5512 5515 5519 5522 5526 5531 5539 5542 5548 5554 5559 5565 5571 5577 5583 5589 5595 5601 5607 5614 5620 5626 5632 5637 5643 5649 5654 5659 5664 5669 5673 5678 5683 5687 5691 5694 5698 5701 5705 5708 5711 5714 5717 5720 5722 5725 5727 5729
Wind_Speed
29 29 29 28 29 28 25 22 22 22 22 22 22 21 20 19 18 17 15 15 15 15 15 15 15 14 14 14 14 13 13 13 13 13 13 12 11 11 11 11 10 9 9 8 7 7 6 5 5
30 30 31 31 31 29 25 23 24 24 24 24 24 23 22 21 19 17 17 16 17 16 16 16 16 16 15 15 15 15 14 14 14 14 13 13 13 12 12 12 11 11 10 9 8 8 7 6 5
31 32 32 33 33 29 26 25 26 26 26 26 25 25 23 22 20 19 19 18 18 18 17 17 17 17 17 16 16 16 15 15 15 14 14 14 14 14 14 13 13 12 12 11 9 9 8 7 6
32 33 34 35 33 29 28 28 28 28 28 27 27 26 25 23 22 21 21 20 20 19 18 18 18 18 18 18 18 17 16 16 16 15 15 15 15 15 15 14 14 13 13 12 11 10 9 9 9
34 35 36 35 33 30 30 30 31 30 30 29 29 27 26 25 24 23 23 22 22 21 20 20 19 19 19 19 19 19 18 17 17 16 16 16 15 16 16 16 15 15 14 13 12 12 11 10 10
37 37 38 37 34 32 31 32 33 33 32 31 31 29 28 27 26 25 25 24 24 23 22 22 21 21 21 20 20 20 19 18 18 17 17 17 17 16 16 16 16 16 15 14 14 13 12 12 11
39 39 39 38 36 34 33 34 35 35 34 33 32 31 30 29 28 27 27 26 25 25 24 23 23 22 22 22 21 21 20 20 19 18 18 17 17 17 17 16 17 16 16 15 15 14 13 12 12
41 42 41 40 38 35 35 36 37 37 36 36 35 33 31 30 30 29 28 28 27 26 26 25 25 24 24 23 23 22 22 21 20 19 19 18 18 18 18 17 17 17 17 17 16 16 15 14 14
43 44 42 40 39 37 37 38 39 39 38 38 36 35 34 33 31 30 30 30 29 28 27 27 27 26 26 25 25 24 23 23 22 21 20 19 19 19 19 18 18 18 18 18 17 17 16 16 15
45 45 42 41 41 41 40 40 41 41 40 40 39 37 36 35 33 32 31 31 30 30 29 29 28 28 28 27 26 26 25 25 24 23 22 21 21 20 20 20 20 19 19 19 19 18 18 18 17
46 46 44 44 44 44 43 43 43 42 42 41 40 39 38 36 35 34 33 32 32 31 31 30 29 29 29 29 28 28 27 26 25 25 24 23 22 22 21 21 21 20 20 20 20 20 20 19 19
48 47 47 46 46 46 46 45 45 44 43 43 42 41 39 38 37 36 35 34 33 32 32 31 31 30 30 30 30 30 29 28 27 26 26 25 24 24 23 23 23 22 22 21 21 20 20 20 20
50 49 49 49 49 49 48 48 48 46 45 45 44 43 42 40 39 38 37 36 35 34 33 33 32 32 32 32 31 31 30 30 29 28 28 27 26 25 25 24 24 24 24 23 23 22 22 22 21
51 51 51 51 51 51 51 50 50 48 47 47 46 45 44 42 41 40 39 37 36 35 34 34 34 34 33 33 33 32 31 31 30 30 29 28 28 27 27 26 26 25 25 25 24 24 23 23 22
52 53 54 54 53 53 53 53 51 49 50 49 48 47 46 45 44 42 41 39 38 37 36 36 35 35 35 35 34 33 32 32 31 31 30 29 29 29 28 28 27 27 27 27 26 26 24 24 24
54 55 55 54 55 54 56 55 51 51 52 52 51 49 48 47 46 44 43 42 40 39 38 38 37 37 37 37 37 36 34 34 33 32 32 31 30 30 30 30 29 29 28 28 28 27 27 26 26
55 56 55 55 55 56 57 55 52 53 54 53 52 51 50 49 48 47 46 44 43 42 41 40 39 39 39 39 39 38 37 35 34 34 33 33 32 32 32 31 31 31 30 30 29 29 29 29 28
54 56 56 56 56 57 57 56 55 55 55 55 54 53 52 50 49 49 48 47 46 44 43 42 41 41 41 41 40 40 38 37 36 35 35 34 34 33 33 33 33 32 32 32 31 31 31 30 30
52 55 56 56 56 57 57 56 55 56 56 56 55 55 53 52 51 51 50 49 48 47 46 44 43 43 43 42 41 41 39 38 37 37 36 36 35 34 34 34 34 34 33 33 33 32 32 31 32
50 52 54 55 55 56 56 57 56 56 57 57 57 56 55 53 53 53 52 51 50 49 47 46 45 44 44 43 43 42 42 41 40 39 38 38 37 37 36 36 35 35 35 35 34 33 33 33 33
47 49 50 52 53 54 54 56 56 56 56 56 57 57 56 54 54 54 53 52 51 50 48 47 46 46 45 45 45 44 44 42 41 40 40 39 39 39 38 37 37 36 36 36 35 35 35 35 34
44 46 47 49 50 52 53 55 55 54 54 55 55 56 56 55 54 54 53 52 51 50 49 49 48 47 46 46 46 45 45 44 42 42 41 41 40 40 39 39 38 38 37 36 36 36 36 35 35
40 42 45 46 48 50 51 52 53 53 54 53 53 54 55 54 54 54 53 52 51 51 50 49 49 48 48 47 47 46 46 45 45 44 43 42 41 41 40 40 39 39 38 38 38 37 36 36 36
37 39 42 44 46 50 49 51 52 52 52 51 52 53 53 53 53 53 52 51 51 50 50 49 49 49 48 48 47 47 47 46 46 45 44 43 43 42 41 41 40 40 39 38 38 38 37 37 37
35 36 39 42 44 48 47 49 51 49 49 50 51 51 51 52 52 51 52 51 51 51 50 50 50 49 49 49 48 48 47 47 46 46 45 44 43 43 43 42 41 41 40 40 40 39 39 38 38
31 34 37 39 43 45 46 47 47 47 47 47 49 50 50 51 51 51 51 51 50 50 50 50 50 50 50 50 49 49 49 48 47 47 46 45 44 43 43 43 42 41 41 41 40 39 39 39 39
27 32 33 34 37 39 41 44 45 45 44 45 46 48 48 49 50 50 51 51 50 50 49 50 50 50 50 50 49 49 49 48 48 47 47 46 45 45 44 44 43 42 42 42 41 41 40 39 39
26 28 31 32 33 36 39 42 43 43 43 43 44 46 47 48 49 49 50 51 51 50 50 50 50 50 50 50 49 49 49 49 48 48 47 46 46 46 45 44 44 44 43 43 43 42 42 41 41
26 27 30 33 33 33 37 40 40 41 41 41 43 44 45 46 48 49 49 50 50 51 50 50 50 50 49 49 49 49 50 49 49 48 48 47 47 46 46 45 45 44 44 44 43 43 43 43 42
25 27 28 31 34 35 34 36 38 39 40 40 41 42 43 45 46 47 48 49 50 50 50 50 50 50 49 49 49 49 50 50 49 49 49 48 48 48 47 46 46 46 45 45 44 44 44 43 43
Wind_Direction
241 239 239 238 239 238 237 235 234 234 234 234 234 235 234 233 232 231 226 225 225 225 225 225 223 221 221 221 220 221 221 221 222 222 221 219 220 219 215 212 211 209 211 211 212 213 211 207 205
241 240 239 239 239 239 237 235 234 235 235 235 235 236 236 235 234 232 229 228 228 227 226 226 224 223 222 222 222 223 223 223 224 225 224 224 223 223 221 219 217 216 217 216 219 220 221 219 218
241 240 239 239 239 239 237 235 235 235 236 236 236 237 236 236 234 233 230 229 229 228 227 227 226 224 223 223 223 224 224 224 225 226 226 227 226 226 226 224 222 221 221 222 225 227 230 230 230
242 241 240 241 240 239 238 237 236 236 237 237 238 237 237 236 235 233 231 230 230 230 230 230 229 227 224 224 224 225 226 226 225 227 229 229 229 229 229 229 227 226 226 226 229 231 233 236 237
243 242 242 242 241 238 237 238 237 237 237 237 238 238 236 236 235 234 232 231 231 231 231 231 231 230 227 226 225 225 227 227 227 228 230 230 230 230 231 231 231 229 229 230 233 235 235 237 240
243 243 243 242 241 239 238 238 239 238 237 237 237 237 236 236 235 234 233 233 233 233 232 232 232 232 230 228 227 226 226 228 228 229 231 231 231 231 232 232 232 232 231 232 234 236 237 237 239
244 244 244 243 242 239 238 239 240 239 238 237 237 237 236 236 236 235 234 234 234 234 233 233 233 232 232 230 229 228 227 228 229 229 231 231 231 232 233 233 233 234 234 234 236 237 238 239 241
245 245 244 243 242 240 238 239 239 239 239 238 237 237 236 236 236 235 235 235 235 235 234 234 234 233 232 231 229 229 229 228 229 229 230 231 232 232 234 235 235 236 236 237 237 238 240 241 243
246 245 245 244 243 240 238 239 239 240 239 238 237 237 236 235 235 234 234 235 236 235 235 235 235 234 233 231 230 229 229 229 229 229 230 231 233 234 235 236 236 237 237 238 239 240 242 243 245
247 246 246 245 243 241 239 238 239 239 239 238 237 236 236 235 234 234 234 235 236 236 235 235 235 234 233 231 230 229 229 229 230 230 231 232 233 235 236 237 237 238 238 239 241 243 243 244 246
248 247 245 244 243 241 239 238 238 238 238 238 238 237 236 235 234 234 234 234 235 236 235 235 235 234 233 232 230 229 229 229 230 231 232 233 235 236 237 237 237 238 239 241 243 244 245 246 247
249 247 245 244 243 241 240 239 238 238 238 238 237 237 236 235 234 234 234 233 234 235 234 234 234 234 233 232 231 231 230 230 230 232 233 235 236 237 238 239 239 240 241 242 243 245 247 248 248
248 247 245 244 242 241 240 238 238 237 237 237 237 236 236 235 234 234 233 233 233 233 234 234 234 234 232 231 229 230 231 232 232 233 234 235 236 238 239 240 241 242 242 243 244 245 247 249 250
248 246 245 243 242 241 240 238 238 237 237 237 236 235 235 234 234 234 234 234 234 233 233 233 234 234 232 231 229 230 232 233 233 234 235 236 237 238 239 241 242 242 242 243 245 247 249 250 250
247 245 243 242 242 241 240 239 237 236 236 236 236 235 234 234 234 234 234 235 234 234 233 233 234 234 233 232 231 232 233 234 235 236 236 237 238 239 240 241 242 243 243 245 246 248 249 250 252
246 244 243 241 241 240 240 239 237 236 235 235 235 235 234 234 234 234 234 234 235 234 234 234 234 234 234 233 233 233 234 235 237 238 238 238 239 241 241 241 242 243 244 246 247 249 250 252 254
245 244 243 241 240 240 240 240 237 236 236 235 235 235 234 234 234 234 234 234 235 235 234 234 234 234 234 234 234 235 236 237 238 239 240 240 241 242 242 242 243 244 245 246 248 249 251 253 255
245 243 241 240 240 240 240 239 237 236 236 235 234 234 234 234 233 234 234 234 234 235 235 234 234 234 234 234 235 236 236 237 239 240 241 241 243 243 244 244 244 245 246 247 248 250 252 254 256
246 243 241 240 239 239 239 238 236 235 235 235 234 234 234 233 233 233 233 233 234 234 235 235 235 234 234 234 235 236 237 238 239 239 240 242 243 244 244 244 245 245 246 248 249 250 252 254 255
244 242 241 240 239 239 238 237 235 235 234 234 234 233 233 233 232 232 232 233 233 234 234 235 235 235 234 234 235 236 237 238 239 240 241 242 243 244 244 245 246 246 247 248 250 250 253 254 255
242 241 240 240 239 240 239 237 234 234 234 233 232 232 232 232 232 232 232 233 233 234 234 235 235 235 235 235 234 235 236 237 239 240 241 242 243 243 244 245 247 247 248 249 250 251 253 253 254
242 240 239 239 239 239 238 237 234 233 233 232 231 231 231 231 231 232 232 232 233 234 234 234 235 235 235 235 235 235 236 237 238 239 241 242 243 244 245 246 247 248 248 250 251 251 252 253 254
242 239 238 238 238 238 237 238 235 234 233 232 231 231 231 231 231 231 232 232 232 232 233 233 234 235 235 236 235 236 236 237 238 240 241 242 243 244 245 247 247 248 249 250 251 252 253 255 255
240 237 236 237 237 237 236 237 236 234 233 232 231 231 230 230 230 230 230 230 230 231 231 232 233 234 235 235 235 236 236 237 239 240 241 242 243 244 245 247 248 248 249 251 252 252 254 255 256
236 234 233 234 234 236 234 236 235 234 232 232 231 230 229 229 228 228 229 229 230 231 231 231 232 233 234 235 235 236 236 238 239 241 242 242 244 245 245 247 247 248 249 250 251 252 254 255 256
235 231 233 234 234 234 234 234 233 232 231 231 230 229 229 228 228 228 228 229 229 230 230 231 232 233 233 234 235 236 237 238 239 241 242 243 245 246 246 247 247 248 249 249 250 252 254 255 256
235 231 232 234 234 233 232 233 232 231 231 230 230 230 229 229 228 228 228 228 229 230 230 231 232 233 234 234 235 236 237 238 239 241 242 243 245 246 247 247 247 248 249 249 250 252 254 254 256
240 235 231 227 227 228 229 230 229 229 230 231 230 230 229 228 229 229 228 228 229 230 231 231 232 233 234 234 235 235 236 237 239 240 242 243 244 246 247 247 248 248 249 250 251 252 253 254 256
238 234 231 228 226 226 227 228 228 229 229 230 229 229 229 229 229 230 230 230 230 230 231 232 233 234 235 235 236 236 236 237 238 240 241 242 244 245 246 247 248 249 250 251 252 253 254 255 257
239 233 229 227 227 227 228 229 228 229 229 229 228 228 229 229 229 229 229 230 230 231 231 232 233 234 234 235 236 236 237 237 238 240 241 242 243 244 245 246 247 248 249 250 251 253 254 255 257